| time (UTC) | temp F | wind direction | speed MPH | gust MPH | rain 1hr in | rain 24hr in | rain mn in | humidity % | barometer mb |
| 20260906064555 | 63 | 44 | 4.0 | 7.0 | 0.00 | 0.04 | 0.00 | 95 | 1010.3 |
| 20260906063050 | 63 | 347 | 4.0 | 6.0 | 0.00 | 0.04 | 0.00 | 95 | 1010.9 |
| 20260906061548 | 63 | 44 | 4.0 | 6.0 | 0.00 | 0.04 | 0.00 | 95 | 1010.9 |
| 20260906060046 | 63 | 48 | 0.0 | 4.0 | 0.00 | 0.04 | 0.00 | 95 | 1011.1 |
| 20260906054549 | 63 | 267 | 2.0 | 7.0 | 0.00 | 0.04 | 0.00 | 95 | 1011.2 |
| 20260906053042 | 63 | 347 | 4.0 | 6.0 | 0.00 | 0.04 | 0.00 | 95 | 1011.0 |
| 20260906051548 | 63 | 347 | 5.0 | 7.0 | 0.00 | 0.04 | 0.00 | 95 | 1011.2 |
| 20260906050058 | 63 | 347 | 4.0 | 8.0 | 0.00 | 0.04 | 0.00 | 95 | 1011.2 |
| 20260906044535 | 63 | 46 | 6.0 | 9.0 | 0.00 | 0.04 | 0.00 | 94 | 1011.2 |
| 20260906043033 | 63 | 41 | 6.0 | 10.0 | 0.00 | 0.04 | 0.00 | 94 | 1011.1 |
| 20260906041529 | 63 | 347 | 5.0 | 9.0 | 0.00 | 0.04 | 0.00 | 95 | 1011.1 |
| 20260906040024 | 63 | 43 | 4.0 | 8.0 | 0.00 | 0.04 | 0.00 | 95 | 1011.3 |
| 20260906034536 | 63 | 33 | 7.0 | 10.0 | 0.00 | 0.04 | 0.04 | 96 | 1011.4 |
| 20260906033025 | 64 | 40 | 7.0 | 10.0 | 0.00 | 0.04 | 0.04 | 96 | 1011.4 |
| 20260906031520 | 63 | 47 | 7.0 | 10.0 | 0.00 | 0.04 | 0.04 | 96 | 1011.4 |
| 20260906030016 | 63 | 43 | 10.0 | 14.0 | 0.00 | 0.04 | 0.04 | 96 | 1011.4 |
| 20260906024514 | 64 | 46 | 12.0 | 16.0 | 0.00 | 0.04 | 0.04 | 96 | 1011.1 |
| 20260906023012 | 64 | 35 | 12.0 | 15.0 | 0.00 | 0.04 | 0.04 | 95 | 1011.1 |
| 20260906021509 | 64 | 39 | 8.0 | 12.0 | 0.00 | 0.04 | 0.04 | 93 | 1011.2 |
| 20260906020009 | 64 | 340 | 7.0 | 11.0 | 0.00 | 0.04 | 0.04 | 93 | 1011.2 |
| 20260906014509 | 64 | 44 | 8.0 | 13.0 | 0.00 | 0.04 | 0.04 | 92 | 1011.2 |
| 20260906013009 | 64 | 41 | 9.0 | 13.0 | 0.00 | 0.04 | 0.04 | 93 | 1011.0 |
| 20260906011503 | 64 | 35 | 8.0 | 13.0 | 0.00 | 0.04 | 0.04 | 93 | 1010.7 |
| 20260906010001 | 64 | 46 | 9.0 | 13.0 | 0.00 | 0.04 | 0.04 | 93 | 1010.4 |
| 20260906004600 | 64 | 42 | 10.0 | 14.0 | 0.00 | 0.04 | 0.04 | 91 | 1010.2 |
| 20260906003107 | 64 | 32 | 13.0 | 17.0 | 0.00 | 0.04 | 0.04 | 90 | 1009.7 |
| 20260906001557 | 64 | 36 | 11.0 | 16.0 | 0.00 | 0.04 | 0.04 | 89 | 1009.7 |
| 20260906000055 | 64 | 42 | 12.0 | 18.0 | 0.00 | 0.04 | 0.04 | 89 | 1009.6 |
| 20260905234601 | 65 | 45 | 12.0 | 17.0 | 0.00 | 0.04 | 0.04 | 87 | 1009.6 |
| 20260905233050 | 65 | 27 | 12.0 | 16.0 | 0.00 | 0.04 | 0.04 | 87 | 1009.7 |
| 20260905231548 | 66 | 42 | 12.0 | 17.0 | 0.00 | 0.04 | 0.04 | 87 | 1009.5 |
| 20260905230050 | 67 | 41 | 13.0 | 19.0 | 0.00 | 0.04 | 0.04 | 87 | 1009.3 |
| 20260905224545 | 67 | 39 | 13.0 | 21.0 | 0.00 | 0.04 | 0.04 | 88 | 1009.3 |
| 20260905223044 | 68 | 30 | 15.0 | 22.0 | 0.00 | 0.04 | 0.04 | 89 | 1009.2 |
| 20260905221538 | 68 | 39 | 13.0 | 20.0 | 0.00 | 0.04 | 0.04 | 89 | 1009.3 |
| 20260905220039 | 69 | 13 | 12.0 | 20.0 | 0.00 | 0.04 | 0.04 | 87 | 1009.7 |
| 20260905214533 | 69 | 44 | 12.0 | 17.0 | 0.00 | 0.04 | 0.04 | 87 | 1009.7 |
| 20260905213030 | 69 | 44 | 13.0 | 20.0 | 0.00 | 0.04 | 0.04 | 86 | 1009.7 |
| 20260905211527 | 70 | 33 | 12.0 | 17.0 | 0.00 | 0.04 | 0.04 | 84 | 1009.7 |
| 20260905210031 | 70 | 42 | 9.0 | 15.0 | 0.00 | 0.04 | 0.04 | 85 | 1009.9 |
| 20260905204522 | 70 | 259 | 9.0 | 14.0 | 0.00 | 0.04 | 0.04 | 86 | 1010.0 |
| 20260905203020 | 69 | 34 | 10.0 | 15.0 | 0.00 | 0.04 | 0.04 | 85 | 1009.9 |
| 20260905201524 | 69 | 37 | 10.0 | 17.0 | 0.00 | 0.04 | 0.04 | 83 | 1009.9 |
| 20260905200028 | 69 | 52 | 9.0 | 16.0 | 0.00 | 0.04 | 0.04 | 80 | 1009.8 |
| 20260905194515 | 69 | 41 | 11.0 | 15.0 | 0.00 | 0.04 | 0.04 | 81 | 1010.0 |
| 20260905193025 | 67 | 46 | 9.0 | 15.0 | 0.00 | 0.04 | 0.04 | 81 | 1009.9 |
| 20260905191509 | 65 | 44 | 9.0 | 16.0 | 0.00 | 0.04 | 0.04 | 86 | 1009.9 |
| 20260905190013 | 65 | 6 | 12.0 | 19.0 | 0.00 | 0.04 | 0.04 | 88 | 1009.9 |
| 20260905184512 | 63 | 48 | 12.0 | 18.0 | 0.00 | 0.04 | 0.04 | 90 | 1010.0 |
| 20260905183103 | 61 | 36 | 11.0 | 16.0 | 0.01 | 0.04 | 0.04 | 93 | 1010.1 |
| 20260905181558 | 61 | 42 | 9.0 | 13.0 | 0.01 | 0.04 | 0.04 | 95 | 1010.7 |
| 20260905180055 | 61 | 40 | 11.0 | 14.0 | 0.01 | 0.04 | 0.04 | 95 | 1010.8 |
| 20260905174558 | 60 | 39 | 5.0 | 10.0 | 0.04 | 0.04 | 0.04 | 97 | 1011.7 |
| 20260905173102 | 59 | 32 | 13.0 | 17.0 | 0.03 | 0.03 | 0.03 | 97 | 1012.1 |
| 20260905171549 | 59 | 31 | 13.0 | 16.0 | 0.03 | 0.03 | 0.03 | 96 | 1012.2 |
| 20260905170048 | 60 | 16 | 14.0 | 19.0 | 0.03 | 0.03 | 0.03 | 96 | 1012.2 |
| 20260905164538 | 65 | 34 | 22.0 | 31.0 | 0.00 | 0.00 | 0.00 | 92 | 1012.1 |
| 20260905163035 | 68 | 324 | 13.0 | 18.0 | 0.00 | 0.00 | 0.00 | 93 | 1012.1 |
| 20260905161533 | 70 | 32 | 10.0 | 14.0 | 0.00 | 0.00 | 0.00 | 91 | 1012.1 |
| 20260905160046 | 70 | 274 | 11.0 | 22.0 | 0.00 | 0.00 | 0.00 | 91 | 1011.9 |
| 20260905154528 | 69 | 48 | 12.0 | 18.0 | 0.00 | 0.00 | 0.00 | 93 | 1012.1 |
| 20260905153025 | 69 | 36 | 15.0 | 21.0 | 0.00 | 0.00 | 0.00 | 92 | 1012.1 |
| 20260905151524 | 70 | 41 | 14.0 | 18.0 | 0.00 | 0.00 | 0.00 | 92 | 1011.6 |
| 20260905150026 | 69 | 46 | 13.0 | 18.0 | 0.00 | 0.00 | 0.00 | 93 | 1011.7 |
| 20260905144537 | 68 | 43 | 11.0 | 16.0 | 0.00 | 0.00 | 0.00 | 94 | 1011.5 |
| 20260905143021 | 69 | 39 | 11.0 | 17.0 | 0.00 | 0.00 | 0.00 | 94 | 1011.7 |
| 20260905141520 | 69 | 40 | 11.0 | 16.0 | 0.00 | 0.00 | 0.00 | 93 | 1011.8 |
| 20260905140012 | 69 | 46 | 12.0 | 17.0 | 0.00 | 0.00 | 0.00 | 92 | 1011.6 |
| 20260905134615 | 69 | 30 | 12.0 | 18.0 | 0.00 | 0.00 | 0.00 | 92 | 1011.5 |
| 20260905133008 | 68 | 32 | 12.0 | 17.0 | 0.00 | 0.00 | 0.00 | 93 | 1011.4 |
| 20260905131503 | 68 | 44 | 13.0 | 19.0 | 0.00 | 0.00 | 0.00 | 93 | 1011.8 |
| 20260905130002 | 68 | 34 | 13.0 | 21.0 | 0.00 | 0.00 | 0.00 | 93 | 1011.7 |
| 20260905124559 | 68 | 46 | 11.0 | 16.0 | 0.00 | 0.00 | 0.00 | 93 | 1011.7 |
| 20260905123156 | 67 | 30 | 10.0 | 16.0 | 0.00 | 0.00 | 0.00 | 94 | 1011.7 |
| 20260905121554 | 67 | 45 | 11.0 | 16.0 | 0.00 | 0.00 | 0.00 | 94 | 1011.7 |
| 20260905120056 | 67 | 39 | 11.0 | 16.0 | 0.00 | 0.00 | 0.00 | 94 | 1011.5 |
| 20260905114623 | 66 | 46 | 11.0 | 15.0 | 0.00 | 0.00 | 0.00 | 94 | 1011.2 |
| 20260905113046 | 66 | 46 | 10.0 | 15.0 | 0.00 | 0.00 | 0.00 | 94 | 1011.2 |
| 20260905111550 | 66 | 40 | 11.0 | 15.0 | 0.00 | 0.00 | 0.00 | 95 | 1011.1 |
| 20260905110040 | 66 | 41 | 11.0 | 16.0 | 0.00 | 0.00 | 0.00 | 94 | 1011.1 |
| 20260905104537 | 66 | 67 | 10.0 | 16.0 | 0.00 | 0.00 | 0.00 | 94 | 1010.9 |
| 20260905103036 | 66 | 47 | 11.0 | 15.0 | 0.00 | 0.00 | 0.00 | 94 | 1010.9 |
| 20260905101534 | 66 | 40 | 10.0 | 15.0 | 0.00 | 0.00 | 0.00 | 94 | 1010.9 |
| 20260905100030 | 66 | 40 | 10.0 | 14.0 | 0.00 | 0.00 | 0.00 | 94 | 1010.8 |
| 20260905094525 | 67 | 39 | 9.0 | 14.0 | 0.00 | 0.00 | 0.00 | 94 | 1010.8 |
| 20260905093025 | 67 | 23 | 8.0 | 12.0 | 0.00 | 0.00 | 0.00 | 94 | 1010.7 |
| 20260905091519 | 67 | 44 | 8.0 | 12.0 | 0.00 | 0.00 | 0.00 | 94 | 1010.8 |
| 20260905090016 | 67 | 30 | 8.0 | 12.0 | 0.00 | 0.00 | 0.00 | 94 | 1010.8 |
| 20260905084516 | 67 | 31 | 8.0 | 11.0 | 0.00 | 0.00 | 0.00 | 94 | 1011.0 |
| 20260905083010 | 67 | 48 | 7.0 | 11.0 | 0.00 | 0.00 | 0.00 | 94 | 1011.2 |
| 20260905081506 | 67 | 35 | 7.0 | 11.0 | 0.00 | 0.00 | 0.00 | 93 | 1011.2 |
| 20260905080002 | 67 | 45 | 7.0 | 9.0 | 0.00 | 0.00 | 0.00 | 93 | 1011.6 |
| 20260905074603 | 67 | 46 | 6.0 | 8.0 | 0.00 | 0.00 | 0.00 | 93 | 1011.7 |
| 20260905073106 | 67 | 14 | 6.0 | 8.0 | 0.00 | 0.00 | 0.00 | 93 | 1011.7 |
| 20260905071553 | 67 | 46 | 6.0 | 8.0 | 0.00 | 0.00 | 0.00 | 92 | 1011.8 |
| 20260905070049 | 68 | 44 | 6.0 | 8.0 | 0.00 | 0.00 | 0.00 | 92 | 1012.0 |